Date String (YYYY-MM-DD hh:mm:ss) UTC,Instrument flags,Ambient pressure (hPa),Sample flow (lpm),Bypass flow (lpm),Sample temperature (°C),Ambient temperature (°C),ASC tube jacket temperature (°C),LED temperature (°C),Box temperature (°C),Sample RH (%),Span deviation,Mass concentration (μg/m³),Mass concentration (μg/m³),Mass concentration (μg/m³)
DateTimeUTC,F1_M11,P_M11,Q1_M11,Q2_M11,T1_M11,T2_M11,T3_M11,T4_M11,T5_M11,U1_M11,ZSPAN_M11,X0_M11,X2_M11,X1_M11
2021-09-15 16:00:00,,0826.2,5.01,0.00,29.9,28.7,00.0,39.0,31.7,28.7,0000.7,0016.85,0008.98,0007.97
2021-09-15 16:01:00,,0826.2,4.99,0.00,30.0,28.8,00.0,39.0,31.8,28.6,0000.4,0016.25,0008.93,0007.94
2021-09-15 16:02:00,,0826.1,5.01,0.00,30.0,28.9,00.0,39.0,31.8,28.8,0000.3,0016.56,0008.92,0007.90
2021-09-15 16:03:00,,0826.1,5.00,0.00,30.0,29.0,00.0,39.0,31.8,29.0,0000.2,0016.86,0008.95,0007.88
2021-09-15 16:04:00,,0826.2,4.99,0.00,30.1,29.1,00.0,39.1,31.9,29.3,0000.3,0016.77,0008.92,0007.86
2021-09-15 16:05:00,,0826.2,4.99,0.00,30.1,29.2,00.0,39.1,31.9,29.2,0000.7,0016.93,0008.94,0007.84
2021-09-15 16:06:00,,0826.2,5.01,0.00,30.1,29.2,00.0,39.1,31.9,29.0,0000.5,0016.49,0008.88,0007.79
2021-09-15 16:07:00,,0826.2,5.00,0.00,30.1,28.9,00.0,39.1,31.9,29.0,0000.3,0016.73,0008.87,0007.75
2021-09-15 16:08:00,,0826.2,5.01,0.00,30.0,27.3,00.0,39.1,31.4,29.2,-000.1,0016.53,0008.80,0007.69
2021-09-15 16:09:00,,0826.1,4.99,0.00,29.9,26.4,00.0,39.1,31.2,29.7,-000.1,0016.60,0008.77,0007.67
2021-09-15 16:10:00,,0826.2,5.00,0.00,29.8,26.6,00.0,39.1,31.2,30.5,0000.0,0016.77,0008.72,0007.67
2021-09-15 16:11:00,,0826.2,5.00,0.00,29.8,27.0,00.0,39.0,31.3,30.7,-000.2,0016.87,0008.68,0007.64
2021-09-15 16:12:00,,0826.2,5.00,0.00,29.7,27.4,00.0,39.0,31.3,30.3,-000.0,0016.95,0008.68,0007.62
2021-09-15 16:13:00,,0826.2,5.01,0.00,29.8,27.8,00.0,38.9,31.4,30.6,-000.1,0016.22,0008.68,0007.62
2021-09-15 16:14:00,,0826.1,5.00,0.00,29.8,28.1,00.0,38.9,31.5,30.5,-000.2,0016.20,0008.65,0007.64
2021-09-15 16:15:00,,0826.2,5.00,0.00,29.8,28.3,00.0,38.9,31.5,30.5,-000.1,0016.41,0008.69,0007.65
2021-09-15 16:16:00,,0826.2,4.99,0.00,29.8,28.5,00.0,38.9,31.6,30.1,-000.3,0016.18,0008.67,0007.64
2021-09-15 16:17:00,,0826.2,5.00,0.00,29.9,28.7,00.0,38.9,31.7,29.8,-000.6,0016.37,0008.72,0007.67
2021-09-15 16:18:00,,0826.1,5.00,0.00,29.9,28.8,00.0,38.9,31.7,29.7,-000.8,0016.19,0008.71,0007.67
2021-09-15 16:19:00,,0826.2,5.00,0.00,29.9,28.9,00.0,38.9,31.8,29.6,-000.8,0016.31,0008.73,0007.66
2021-09-15 16:20:00,,0826.2,5.01,0.00,30.0,29.0,00.0,39.0,31.8,29.1,-000.7,0015.79,0008.76,0007.68
2021-09-15 16:21:00,,0826.1,4.98,0.00,30.0,29.1,00.0,39.0,31.9,29.3,-000.6,0016.22,0008.75,0007.67
2021-09-15 16:22:00,,0826.2,5.01,0.00,30.0,29.2,00.0,39.0,31.9,29.5,-000.3,0015.88,0008.75,0007.66
2021-09-15 16:23:00,,0826.2,4.99,0.00,30.1,28.9,00.0,39.0,31.8,29.3,-000.3,0015.43,0008.72,0007.67
2021-09-15 16:24:00,,0826.2,5.00,0.00,30.0,27.2,00.0,39.0,31.4,29.6,-000.1,0015.12,0008.69,0007.67
2021-09-15 16:25:00,,0826.1,5.00,0.00,29.9,26.3,00.0,39.0,31.2,29.8,0000.2,0014.63,0008.69,0007.65
2021-09-15 16:26:00,,0826.2,5.00,0.00,29.8,26.6,00.0,39.0,31.2,30.3,0000.1,0014.72,0008.72,0007.65
2021-09-15 16:27:00,,0826.1,4.99,0.00,29.7,27.0,00.0,38.9,31.3,30.2,0000.3,0015.03,0008.72,0007.65
2021-09-15 16:28:00,,0826.1,5.00,0.00,29.7,27.4,00.0,38.9,31.3,30.3,0000.7,0015.21,0008.65,0007.62
2021-09-15 16:29:00,,0826.2,5.00,0.00,29.7,27.8,00.0,38.9,31.4,30.3,0001.0,0015.36,0008.60,0007.62
2021-09-15 16:30:00,,0826.2,5.01,0.00,29.7,28.1,00.0,38.9,31.4,30.2,0001.4,0015.28,0008.60,0007.67
2021-09-15 16:31:00,,0826.1,4.98,0.00,29.8,28.3,00.0,38.8,31.5,30.4,0001.5,0016.17,0008.64,0007.72
2021-09-15 16:32:00,,0826.2,5.02,0.00,29.8,28.5,00.0,38.8,31.6,30.2,0001.4,0016.20,0008.72,0007.78
2021-09-15 16:33:00,,0826.2,4.99,0.00,29.8,28.6,00.0,38.8,31.6,29.9,0001.4,0016.59,0008.81,0007.84
2021-09-15 16:34:00,,0826.2,5.00,0.00,29.9,28.8,00.0,38.9,31.7,29.5,0001.3,0016.63,0008.87,0007.90
2021-09-15 16:35:00,,0826.1,4.99,0.00,29.9,28.9,00.0,38.9,31.7,29.7,0001.3,0016.72,0008.91,0007.94
2021-09-15 16:36:00,,0826.2,5.01,0.00,29.9,29.0,00.0,38.9,31.8,29.8,0001.3,0016.69,0008.93,0007.98
2021-09-15 16:37:00,,0826.2,5.00,0.00,30.0,29.0,00.0,38.9,31.8,29.3,0001.1,0017.10,0008.94,0008.05
2021-09-15 16:38:00,,0826.1,4.99,0.00,29.9,27.8,00.0,38.9,31.5,29.3,0001.2,0017.33,0008.99,0008.09
2021-09-15 16:39:00,,0826.1,4.99,0.00,29.8,26.3,00.0,38.9,31.1,29.5,0001.1,0017.48,0009.04,0008.14
2021-09-15 16:40:00,,0826.1,5.00,0.00,29.7,26.2,00.0,38.9,31.0,29.6,0000.8,0017.54,0009.07,0008.15
2021-09-15 16:41:00,,0826.1,5.01,0.00,29.6,26.6,00.0,38.8,31.1,30.1,0000.5,0018.23,0009.10,0008.13
2021-09-15 16:42:00,,0826.1,5.00,0.00,29.6,27.1,00.0,38.8,31.2,30.1,0000.4,0018.07,0009.10,0008.12
2021-09-15 16:43:00,,0826.1,5.00,0.00,29.6,27.5,00.0,38.8,31.2,30.3,0000.9,0017.56,0009.09,0008.10
2021-09-15 16:44:00,,0826.1,4.99,0.00,29.6,27.8,00.0,38.8,31.3,29.7,0001.1,0016.95,0009.03,0008.09
2021-09-15 16:45:00,,0826.0,5.01,0.00,29.6,28.1,00.0,38.7,31.4,30.1,0001.1,0016.85,0008.97,0008.06
2021-09-15 16:46:00,,0826.0,5.00,0.00,29.7,28.3,00.0,38.7,31.4,29.8,0001.1,0016.78,0008.94,0008.03
2021-09-15 16:47:00,,0826.0,5.01,0.00,29.7,28.5,00.0,38.7,31.5,29.7,0000.8,0016.75,0008.91,0008.01
2021-09-15 16:48:00,,0826.0,4.99,0.00,29.8,28.6,00.0,38.8,31.6,29.6,0000.7,0016.51,0008.91,0007.97
2021-09-15 16:49:00,,0826.2,5.01,0.00,29.8,28.8,00.0,38.8,31.6,29.9,0000.7,0016.49,0008.89,0007.95
2021-09-15 16:50:00,,0826.2,4.99,0.00,29.8,28.9,00.0,38.8,31.7,29.9,0000.6,0016.74,0008.90,0007.92
2021-09-15 16:51:00,,0826.2,5.00,0.00,29.9,29.0,00.0,38.8,31.8,29.6,0000.7,0016.63,0008.93,0007.92
2021-09-15 16:52:00,,0826.1,5.01,0.00,29.9,28.4,00.0,38.8,31.6,29.7,0000.4,0016.28,0008.92,0007.92
2021-09-15 16:53:00,,0826.0,4.99,0.00,29.8,26.7,00.0,38.8,31.2,29.7,0000.5,0015.79,0008.93,0007.91
2021-09-15 16:54:00,,0825.9,5.00,0.00,29.6,26.1,00.0,38.8,31.0,29.9,0000.2,0015.73,0008.93,0007.89
2021-09-15 16:55:00,,0826.0,5.00,0.00,29.6,26.5,00.0,38.8,31.0,30.1,0000.1,0015.94,0008.95,0007.87
2021-09-15 16:56:00,,0825.9,5.01,0.00,29.5,26.9,00.0,38.7,31.1,29.7,0000.2,0017.15,0008.98,0007.86
2021-09-15 16:57:00,,0826.1,5.01,0.00,29.5,27.3,00.0,38.7,31.2,30.6,0000.2,0017.49,0009.02,0007.85
2021-09-15 16:58:00,,0826.2,5.00,0.00,29.5,27.7,00.0,38.7,31.3,31.0,0000.5,0017.55,0009.01,0007.83
2021-09-15 16:59:00,,0826.0,4.99,0.00,29.6,28.0,00.0,38.7,31.3,30.7,0000.8,0017.83,0008.92,0007.79
